User: anonymous
Location: Vancouver
(49.2500°N, 123.1330°W)
Time: 06:59:53
(UTC-07:00)
Language:

ERS-2 - Orbit

View from above orbital plane
View from above orbital plane
View from above satellite
View from above satellite

Ground track
Ground track

The orbit data is extracted from the following two-line orbital elements,

1 23560U 95021A   14261.51038749  .00006365  00000-0  38551-3 0  1003
2 23560 098.5564 112.7928 0005758 092.9033 325.4240 15.11006811 23353
Epoch (UTC): 18 September 2014 12:14:57
Eccentricity: 0.0005758
inclination: 98.5564°
perigee height: 529 km
apogee height: 537 km
right ascension of ascending node: 112.7928°
argument of perigee: 92.9033°
revolutions per day: 15.11006811
mean anomaly at epoch: 325.4240°
orbit number at epoch: 2335

The dashed part of the orbit path shows where the satellite is in the earth's shadow,  

DLR